Location: Atlantic Beach
(40.5890°N, 73.7290°W)
Time: 04:13:03
(UTC+00:00)

SL-4 R/B - Pass Details

Date: 29 October 2020
Orbit: 427 x 665 km, 51.6° (Epoch: 23 November)

Event Time Altitude Azimuth Distance (km) Brightness Sun altitude
Rises 22:14:47 0° 305° (NW) 2,421 6.0 -4.5°
Reaches altitude 10° 22:17:37 10° 331° (NNW) 1,579 4.6 -5.1°
Maximum altitude 22:19:41 15° 7° (N) 1,343 3.8 -5.4°
Drops below altitude 10° 22:21:49 10° 43° (NE) 1,636 3.9 -5.8°
Enters shadow 22:23:02 - 56° (NE) 1,966 4.3 -6.1°
